Location: Cambridge (historical)
(38.6883°N, 119.0140°W)
Time: 16:43:51
(UTC+00:00)

Cosmos 1606 Rocket - Pass Details

Date: 29 October 2020
Orbit: 604 x 631 km, 82.5° (Epoch: 23 November)

Event Time Altitude Azimuth Distance (km) Brightness Sun altitude
Rises 13:13:41 0° 340° (NNW) 2,930 6.8 -13.6°
Reaches altitude 10° 13:16:10 10° 328° (NNW) 2,018 5.8 -13.1°
Maximum altitude 13:19:56 27° 271° (W) 1,210 4.5 -12.3°
Drops below altitude 10° 13:23:42 10° 213° (SSW) 2,003 5.9 -11.6°
Sets 13:26:10 0° 201° (SSW) 2,903 6.9 -11.1°
